RADFXSAT (FOX-1B)

Last updated on Fri Sep 19 2025 00:03:10 GMT+0000 (Coordinated Universal Time)

1 43017U 17073E 25261.08819675 .00007323 00000+0 36442-3 0 9999 2 43017 97.5092 129.3439 0167813 183.0702 176.9512 15.06342893424335
UTC large
Height (km)
Speed (km/s)
/
Latitude / Longitude
Inclination (degrees)
Orbital Period (minutes)
Azimuth
Elevation
Range (km)
Doppler Factor

Next 0 passes for location: London (51.5072 / 0.1276)

Sorry there are no passes over London.